This is the latest recevied weather packets stored in our database for station/object K9MWD. If no packets are shown the sender has not sent any weather packets the latest 10 day(s).
| Time | Temp. | Humidity | Pressure | Rain* | Wind** | Luminosity | Snow |
|---|---|---|---|---|---|---|---|
| 1777926610 | 27.22° C | 57% | 1009.7 hPa | 0 mm | - | 772 W/m² | - |
| 1777926305 | 27.22° C | 57% | 1009.8 hPa | 0 mm | - | 797 W/m² | - |
| 1777926002 | 27.22° C | 57% | 1009.8 hPa | 0 mm | - | 762 W/m² | - |
| 1777925699 | 27.22° C | 58% | 1010 hPa | 0 mm | - | 809 W/m² | - |
| 1777925396 | 26.67° C | 58% | 1010 hPa | 0 mm | - | 789 W/m² | - |
| 1777925093 | 27.22° C | 58% | 1010.2 hPa | 0 mm | - | 777 W/m² | - |
| 1777924790 | 27.22° C | 58% | 1010.4 hPa | 0 mm | - | 841 W/m² | - |
| 1777924485 | 26.67° C | 59% | 1010.4 hPa | 0 mm | - | 832 W/m² | - |
| 1777924182 | 26.67° C | 59% | 1010.7 hPa | 0 mm | - | 868 W/m² | - |
| 1777923878 | 26.67° C | 59% | 1010.4 hPa | 0 mm | - | 875 W/m² | - |
| 1777923574 | 26.67° C | 58% | 1010.6 hPa | 0 mm | - | 834 W/m² | - |
| 1777923272 | 26.67° C | 58% | 1010.4 hPa | 0 mm | - | 838 W/m² | - |
| 1777922970 | 26.11° C | 58% | 1010.6 hPa | 0 mm | - | 924 W/m² | - |
| 1777922667 | 26.67° C | 59% | 1010.6 hPa | 0 mm | - | 282 W/m² | - |
| 1777922366 | 26.67° C | 57% | 1010.8 hPa | 0 mm | - | 781 W/m² | - |
| 1777922064 | 26.11° C | 58% | 1011 hPa | 0 mm | - | 906 W/m² | - |
| 1777921759 | 26.67° C | 57% | 1010.9 hPa | 0 mm | - | 897 W/m² | - |
| 1777921455 | 26.11° C | 59% | 1011.2 hPa | 0 mm | - | 899 W/m² | - |
| 1777921152 | 26.67° C | 57% | 1011 hPa | 0 mm | - | 896 W/m² | - |
| 1777920849 | 26.11° C | 57% | 1011.2 hPa | 0 mm | - | 917 W/m² | - |
| 1777920545 | 26.67° C | 56% | 1011.1 hPa | 0 mm | - | 925 W/m² | - |
| 1777920241 | 26.11° C | 57% | 1011.4 hPa | 0 mm | - | 944 W/m² | - |
| 1777919937 | 25.56° C | 57% | 1011.3 hPa | 0 mm | - | 909 W/m² | - |
| 1777919634 | 25.56° C | 59% | 1011.3 hPa | 0 mm | - | 903 W/m² | - |
| 1777919332 | 25.56° C | 58% | 1011.6 hPa | 0 mm | - | 901 W/m² | - |
* Rain latest hour (hover to see other rain measurements)
** Current wind speed in m/s (hover to see current wind gust speed)